QPF
0.00 0.01 0.01 0.00 0.00 0.00 0.00 0.00 0.00 0.00 0.00 0.00 0.01 0.01 0.01 0.02 0.03 0.03 0.03 0.04 0.05 0.04 0.06 0.07 0.05 0.06 0.07 0.06 0.05 0.05 0.05 0.05 0.06 0.07 0.09 0.13 0.13 0.13 0.15 0.17 0.20 0.18 0.16
0.01 0.01 0.01 0.00 0.00 0.00 0.00 0.00 0.00 0.00 0.00 0.00 0.01 0.01 0.01 0.02 0.03 0.03 0.04 0.05 0.04 0.05 0.07 0.07 0.07 0.08 0.07 0.06 0.05 0.05 0.04 0.04 0.06 0.07 0.07 0.07 0.07 0.08 0.11 0.12 0.14 0.15 0.13
0.01 0.01 0.01 0.01 0.00 0.00 0.00 0.00 0.00 0.00 0.00 0.00 0.01 0.01 0.01 0.02 0.02 0.03 0.04 0.03 0.03 0.04 0.05 0.07 0.05 0.06 0.07 0.08 0.08 0.07 0.05 0.05 0.05 0.07 0.06 0.05 0.05 0.05 0.08 0.08 0.08 0.08 0.08
0.01 0.01 0.01 0.02 0.01 0.01 0.00 0.00 0.00 0.00 0.00 0.01 0.01 0.01 0.01 0.02 0.03 0.05 0.04 0.03 0.02 0.03 0.04 0.05 0.05 0.05 0.06 0.08 0.10 0.09 0.07 0.06 0.06 0.06 0.06 0.05 0.03 0.04 0.05 0.06 0.04 0.03 0.03
0.00 0.01 0.01 0.01 0.01 0.01 0.00 0.00 0.00 0.00 0.01 0.01 0.02 0.02 0.02 0.04 0.05 0.05 0.02 0.01 0.01 0.01 0.01 0.01 0.03 0.05 0.05 0.06 0.07 0.07 0.05 0.06 0.06 0.05 0.05 0.04 0.02 0.02 0.03 0.03 0.04 0.03 0.02
0.01 0.01 0.02 0.01 0.01 0.00 0.01 0.01 0.01 0.01 0.02 0.03 0.02 0.03 0.04 0.06 0.07 0.04 0.01 0.01 0.01 0.01 0.01 0.02 0.02 0.02 0.02 0.03 0.03 0.04 0.04 0.04 0.04 0.04 0.04 0.03 0.02 0.03 0.03 0.02 0.02 0.02 0.03
0.01 0.01 0.01 0.01 0.01 0.01 0.02 0.05 0.05 0.04 0.04 0.05 0.04 0.06 0.07 0.10 0.08 0.04 0.02 0.02 0.02 0.02 0.02 0.02 0.01 0.02 0.02 0.03 0.04 0.04 0.03 0.03 0.03 0.03 0.02 0.02 0.02 0.03 0.03 0.02 0.03 0.02 0.03
0.01 0.01 0.01 0.01 0.02 0.02 0.04 0.06 0.07 0.08 0.06 0.06 0.08 0.10 0.10 0.09 0.05 0.03 0.02 0.02 0.02 0.02 0.02 0.02 0.02 0.02 0.03 0.04 0.04 0.05 0.04 0.03 0.03 0.03 0.03 0.03 0.03 0.04 0.03 0.04 0.04 0.02 0.02
0.01 0.02 0.01 0.01 0.02 0.03 0.03 0.03 0.04 0.07 0.07 0.08 0.09 0.09 0.07 0.05 0.03 0.02 0.01 0.01 0.01 0.01 0.01 0.03 0.04 0.03 0.04 0.04 0.03 0.03 0.03 0.03 0.02 0.03 0.04 0.03 0.04 0.04 0.03 0.04 0.04 0.04 0.03
0.01 0.01 0.01 0.02 0.03 0.03 0.03 0.03 0.03 0.04 0.07 0.08 0.09 0.07 0.05 0.04 0.02 0.02 0.02 0.01 0.01 0.01 0.01 0.02 0.03 0.03 0.03 0.03 0.02 0.02 0.01 0.01 0.03 0.04 0.04 0.03 0.03 0.04 0.04 0.05 0.05 0.05 0.05
0.02 0.02 0.01 0.01 0.01 0.02 0.02 0.05 0.07 0.08 0.11 0.09 0.06 0.06 0.05 0.04 0.02 0.01 0.01 0.01 0.02 0.02 0.02 0.02 0.02 0.02 0.02 0.02 0.01 0.01 0.01 0.01 0.02 0.03 0.03 0.02 0.02 0.02 0.03 0.04 0.03 0.04 0.05
0.02 0.01 0.01 0.01 0.01 0.01 0.03 0.06 0.06 0.07 0.07 0.06 0.04 0.04 0.04 0.03 0.03 0.01 0.02 0.02 0.02 0.02 0.02 0.01 0.02 0.02 0.02 0.01 0.01 0.01 0.02 0.02 0.02 0.02 0.02 0.02 0.03 0.03 0.02 0.02 0.02 0.03 0.04
0.01 0.01 0.00 0.00 0.00 0.01 0.02 0.03 0.04 0.05 0.05 0.06 0.04 0.03 0.02 0.02 0.02 0.02 0.01 0.01 0.01 0.01 0.01 0.01 0.01 0.02 0.01 0.01 0.01 0.01 0.02 0.02 0.02 0.02 0.02 0.02 0.03 0.03 0.02 0.01 0.02 0.02 0.03
0.01 0.01 0.00 0.01 0.01 0.01 0.01 0.02 0.02 0.03 0.04 0.03 0.02 0.02 0.01 0.01 0.02 0.02 0.01 0.01 0.01 0.01 0.01 0.01 0.01 0.01 0.01 0.01 0.01 0.01 0.02 0.02 0.02 0.03 0.03 0.02 0.03 0.02 0.01 0.01 0.01 0.02 0.02
0.01 0.01 0.01 0.01 0.01 0.01 0.01 0.02 0.02 0.03 0.02 0.02 0.02 0.02 0.01 0.02 0.02 0.02 0.01 0.02 0.02 0.02 0.02 0.02 0.01 0.01 0.01 0.01 0.01 0.02 0.02 0.02 0.02 0.03 0.02 0.02 0.02 0.02 0.01 0.01 0.01 0.02 0.02
0.00 0.00 0.00 0.01 0.02 0.04 0.03 0.03 0.02 0.02 0.03 0.03 0.02 0.02 0.02 0.03 0.03 0.02 0.02 0.02 0.02 0.02 0.01 0.02 0.02 0.01 0.01 0.01 0.02 0.04 0.02 0.01 0.02 0.02 0.02 0.02 0.01 0.01 0.01 0.01 0.02 0.02 0.02
0.01 0.01 0.01 0.01 0.01 0.03 0.04 0.04 0.06 0.06 0.06 0.05 0.04 0.03 0.03 0.03 0.03 0.02 0.02 0.02 0.02 0.02 0.01 0.01 0.01 0.01 0.01 0.02 0.02 0.03 0.02 0.01 0.02 0.02 0.01 0.01 0.01 0.01 0.01 0.01 0.02 0.01 0.02
0.01 0.01 0.01 0.01 0.01 0.04 0.09 0.08 0.11 0.12 0.10 0.09 0.05 0.04 0.03 0.02 0.02 0.02 0.02 0.02 0.02 0.02 0.02 0.01 0.01 0.01 0.01 0.02 0.02 0.02 0.02 0.01 0.01 0.02 0.02 0.02 0.02 0.02 0.02 0.01 0.01 0.01 0.02
0.01 0.01 0.01 0.00 0.01 0.03 0.06 0.05 0.06 0.06 0.07 0.06 0.06 0.04 0.03 0.02 0.02 0.03 0.03 0.02 0.02 0.02 0.02 0.02 0.02 0.02 0.02 0.03 0.03 0.03 0.02 0.01 0.02 0.03 0.03 0.04 0.03 0.03 0.03 0.02 0.02 0.02 0.02
0.01 0.01 0.01 0.01 0.01 0.04 0.06 0.05 0.04 0.04 0.04 0.04 0.04 0.05 0.03 0.03 0.03 0.03 0.04 0.02 0.02 0.01 0.02 0.02 0.03 0.03 0.02 0.03 0.04 0.04 0.03 0.02 0.03 0.03 0.04 0.05 0.04 0.03 0.02 0.02 0.01 0.02 0.01
0.01 0.01 0.01 0.01 0.02 0.06 0.11 0.09 0.07 0.06 0.05 0.04 0.04 0.05 0.04 0.03 0.03 0.04 0.03 0.03 0.03 0.03 0.03 0.02 0.03 0.03 0.03 0.04 0.06 0.08 0.07 0.07 0.07 0.06 0.04 0.04 0.03 0.03 0.02 0.02 0.02 0.01 0.01
0.01 0.01 0.01 0.01 0.01 0.02 0.05 0.06 0.06 0.07 0.06 0.04 0.05 0.05 0.04 0.02 0.02 0.04 0.04 0.04 0.04 0.04 0.04 0.03 0.03 0.03 0.04 0.04 0.05 0.07 0.09 0.12 0.14 0.14 0.11 0.08 0.06 0.05 0.03 0.02 0.02 0.02 0.02
0.01 0.01 0.01 0.01 0.01 0.01 0.02 0.03 0.02 0.04 0.07 0.08 0.06 0.05 0.03 0.02 0.02 0.03 0.04 0.03 0.04 0.03 0.03 0.03 0.03 0.02 0.03 0.03 0.04 0.05 0.05 0.06 0.09 0.10 0.10 0.09 0.07 0.06 0.04 0.03 0.03 0.02 0.02
0.01 0.01 0.01 0.01 0.01 0.01 0.02 0.01 0.02 0.03 0.04 0.06 0.07 0.05 0.03 0.02 0.02 0.02 0.03 0.03 0.03 0.03 0.03 0.03 0.03 0.03 0.03 0.03 0.03 0.03 0.02 0.03 0.05 0.06 0.07 0.07 0.07 0.06 0.04 0.03 0.02 0.01 0.01
0.00 0.01 0.01 0.01 0.01 0.02 0.01 0.01 0.02 0.03 0.02 0.03 0.04 0.05 0.04 0.02 0.02 0.02 0.03 0.03 0.03 0.03 0.03 0.03 0.04 0.04 0.04 0.03 0.03 0.02 0.02 0.02 0.02 0.03 0.03 0.04 0.05 0.05 0.05 0.04 0.02 0.01 0.01
0.01 0.01 0.01 0.01 0.01 0.01 0.01 0.01 0.01 0.02 0.02 0.02 0.03 0.04 0.04 0.02 0.02 0.02 0.03 0.04 0.04 0.04 0.04 0.04 0.04 0.04 0.04 0.04 0.04 0.03 0.03 0.03 0.03 0.03 0.03 0.03 0.03 0.03 0.04 0.03 0.02 0.02 0.01
MSLP
1009.25 1009.27 1009.23 1009.11 1008.94 1008.75 1008.61 1008.54 1008.60 1008.78 1009.06 1009.42 1009.80 1010.16 1010.46 1010.70 1010.87 1010.99 1011.11 1011.24 1011.41 1011.63 1011.92 1012.26 1012.63 1013.04 1013.46 1013.90 1014.33 1014.77 1015.19 1015.60 1015.99 1016.34 1016.65 1016.91 1017.13 1017.32 1017.47 1017.59 1017.69 1017.76 1017.80
1009.32 1009.42 1009.44 1009.37 1009.21 1009.02 1008.86 1008.77 1008.82 1009.00 1009.31 1009.70 1010.12 1010.52 1010.85 1011.08 1011.23 1011.30 1011.36 1011.42 1011.52 1011.70 1011.95 1012.26 1012.62 1013.01 1013.40 1013.79 1014.17 1014.54 1014.91 1015.30 1015.69 1016.10 1016.50 1016.90 1017.28 1017.62 1017.91 1018.15 1018.32 1018.42 1018.46
1009.21 1009.42 1009.54 1009.54 1009.44 1009.27 1009.11 1009.02 1009.05 1009.24 1009.57 1010.00 1010.46 1010.90 1011.25 1011.50 1011.63 1011.67 1011.66 1011.66 1011.70 1011.82 1012.02 1012.30 1012.63 1012.97 1013.32 1013.65 1013.97 1014.27 1014.60 1014.95 1015.35 1015.79 1016.29 1016.81 1017.33 1017.82 1018.26 1018.62 1018.89 1019.05 1019.11
1008.91 1009.25 1009.50 1009.62 1009.60 1009.48 1009.34 1009.26 1009.30 1009.50 1009.84 1010.30 1010.81 1011.29 1011.68 1011.95 1012.08 1012.11 1012.07 1012.02 1012.01 1012.08 1012.23 1012.47 1012.75 1013.05 1013.35 1013.62 1013.86 1014.10 1014.36 1014.67 1015.06 1015.52 1016.07 1016.67 1017.30 1017.92 1018.48 1018.96 1019.32 1019.56 1019.68
1008.42 1008.93 1009.34 1009.59 1009.68 1009.64 1009.55 1009.49 1009.54 1009.74 1010.11 1010.60 1011.14 1011.67 1012.11 1012.42 1012.58 1012.61 1012.56 1012.49 1012.45 1012.48 1012.60 1012.79 1013.03 1013.30 1013.54 1013.76 1013.94 1014.12 1014.31 1014.57 1014.91 1015.36 1015.91 1016.55 1017.23 1017.92 1018.57 1019.13 1019.58 1019.90 1020.09
1007.81 1008.48 1009.06 1009.48 1009.70 1009.75 1009.72 1009.69 1009.75 1009.97 1010.34 1010.85 1011.43 1012.01 1012.50 1012.86 1013.06 1013.13 1013.09 1013.03 1012.98 1012.99 1013.08 1013.24 1013.46 1013.69 1013.90 1014.08 1014.21 1014.33 1014.47 1014.66 1014.94 1015.34 1015.85 1016.46 1017.13 1017.84 1018.51 1019.12 1019.64 1020.04 1020.31
1007.15 1007.97 1008.72 1009.29 1009.65 1009.80 1009.84 1009.85 1009.93 1010.15 1010.53 1011.05 1011.66 1012.27 1012.82 1013.23 1013.49 1013.60 1013.61 1013.56 1013.52 1013.53 1013.61 1013.77 1013.97 1014.18 1014.38 1014.53 1014.64 1014.72 1014.81 1014.93 1015.14 1015.45 1015.89 1016.42 1017.04 1017.70 1018.36 1018.97 1019.52 1019.98 1020.34
1006.49 1007.45 1008.35 1009.06 1009.54 1009.80 1009.90 1009.95 1010.04 1010.27 1010.65 1011.18 1011.81 1012.45 1013.04 1013.51 1013.83 1013.99 1014.05 1014.03 1014.02 1014.04 1014.12 1014.28 1014.48 1014.69 1014.89 1015.04 1015.15 1015.21 1015.26 1015.33 1015.47 1015.69 1016.02 1016.46 1016.97 1017.55 1018.15 1018.74 1019.29 1019.79 1020.22
1005.88 1006.95 1007.97 1008.79 1009.38 1009.72 1009.89 1009.98 1010.10 1010.33 1010.71 1011.24 1011.88 1012.54 1013.17 1013.68 1014.05 1014.27 1014.37 1014.40 1014.41 1014.46 1014.56 1014.72 1014.93 1015.16 1015.37 1015.54 1015.65 1015.72 1015.75 1015.79 1015.87 1016.01 1016.25 1016.57 1016.98 1017.45 1017.97 1018.50 1019.04 1019.55 1020.02
1005.36 1006.50 1007.59 1008.50 1009.16 1009.57 1009.80 1009.94 1010.09 1010.33 1010.72 1011.25 1011.89 1012.57 1013.21 1013.76 1014.17 1014.44 1014.59 1014.66 1014.70 1014.77 1014.89 1015.06 1015.29 1015.53 1015.76 1015.96 1016.10 1016.19 1016.23 1016.26 1016.31 1016.39 1016.55 1016.77 1017.08 1017.45 1017.88 1018.35 1018.84 1019.35 1019.84
1004.91 1006.08 1007.20 1008.15 1008.86 1009.33 1009.62 1009.81 1010.00 1010.28 1010.69 1011.23 1011.87 1012.55 1013.21 1013.78 1014.22 1014.52 1014.71 1014.82 1014.90 1015.00 1015.13 1015.32 1015.56 1015.83 1016.08 1016.31 1016.48 1016.60 1016.67 1016.71 1016.75 1016.81 1016.91 1017.08 1017.30 1017.59 1017.94 1018.34 1018.79 1019.26 1019.75
1004.51 1005.66 1006.77 1007.73 1008.47 1008.99 1009.34 1009.60 1009.85 1010.18 1010.62 1011.18 1011.83 1012.52 1013.18 1013.76 1014.22 1014.56 1014.79 1014.94 1015.05 1015.18 1015.34 1015.55 1015.80 1016.08 1016.36 1016.60 1016.80 1016.95 1017.06 1017.13 1017.18 1017.24 1017.33 1017.46 1017.64 1017.87 1018.16 1018.50 1018.89 1019.32 1019.78
1004.09 1005.20 1006.27 1007.21 1007.96 1008.53 1008.95 1009.29 1009.63 1010.03 1010.52 1011.12 1011.79 1012.48 1013.14 1013.73 1014.21 1014.57 1014.84 1015.03 1015.19 1015.36 1015.55 1015.78 1016.05 1016.34 1016.62 1016.89 1017.11 1017.28 1017.42 1017.51 1017.60 1017.68 1017.78 1017.90 1018.06 1018.26 1018.51 1018.80 1019.14 1019.51 1019.92
1003.61 1004.64 1005.65 1006.56 1007.32 1007.93 1008.43 1008.87 1009.32 1009.81 1010.38 1011.02 1011.71 1012.41 1013.08 1013.68 1014.17 1014.56 1014.87 1015.12 1015.33 1015.55 1015.78 1016.05 1016.33 1016.63 1016.92 1017.18 1017.41 1017.60 1017.75 1017.87 1017.98 1018.09 1018.21 1018.34 1018.50 1018.69 1018.91 1019.16 1019.45 1019.78 1020.13
1003.02 1003.95 1004.89 1005.75 1006.52 1007.19 1007.78 1008.34 1008.91 1009.51 1010.16 1010.86 1011.58 1012.30 1012.97 1013.57 1014.08 1014.51 1014.86 1015.17 1015.45 1015.73 1016.02 1016.32 1016.63 1016.94 1017.22 1017.48 1017.70 1017.88 1018.04 1018.17 1018.30 1018.43 1018.57 1018.72 1018.89 1019.08 1019.28 1019.51 1019.76 1020.03 1020.33
1002.30 1003.12 1003.97 1004.80 1005.58 1006.31 1007.01 1007.69 1008.38 1009.10 1009.84 1010.60 1011.36 1012.09 1012.76 1013.37 1013.90 1014.36 1014.77 1015.15 1015.51 1015.86 1016.21 1016.57 1016.91 1017.23 1017.51 1017.75 1017.95 1018.12 1018.26 1018.39 1018.52 1018.67 1018.82 1018.99 1019.17 1019.36 1019.55 1019.76 1019.97 1020.20 1020.45
1001.44 1002.15 1002.92 1003.71 1004.51 1005.31 1006.11 1006.91 1007.73 1008.56 1009.40 1010.22 1011.01 1011.75 1012.43 1013.05 1013.60 1014.10 1014.56 1015.01 1015.44 1015.88 1016.30 1016.71 1017.09 1017.42 1017.70 1017.93 1018.11 1018.25 1018.38 1018.50 1018.62 1018.77 1018.93 1019.11 1019.29 1019.48 1019.67 1019.86 1020.05 1020.25 1020.46
1000.48 1001.08 1001.78 1002.54 1003.36 1004.22 1005.11 1006.03 1006.97 1007.90 1008.82 1009.69 1010.51 1011.27 1011.96 1012.58 1013.15 1013.69 1014.21 1014.72 1015.23 1015.73 1016.22 1016.68 1017.09 1017.45 1017.73 1017.95 1018.12 1018.24 1018.35 1018.46 1018.58 1018.72 1018.89 1019.07 1019.26 1019.45 1019.63 1019.81 1019.98 1020.16 1020.35
999.47 999.98 1000.61 1001.35 1002.18 1003.09 1004.07 1005.08 1006.11 1007.12 1008.10 1009.02 1009.87 1010.64 1011.34 1011.98 1012.57 1013.14 1013.70 1014.26 1014.83 1015.39 1015.94 1016.44 1016.88 1017.26 1017.55 1017.77 1017.94 1018.06 1018.17 1018.28 1018.40 1018.55 1018.72 1018.91 1019.10 1019.29 1019.47 1019.64 1019.81 1019.97 1020.15
998.50 998.92 999.50 1000.21 1001.04 1001.99 1003.01 1004.09 1005.18 1006.25 1007.28 1008.24 1009.11 1009.90 1010.62 1011.27 1011.88 1012.48 1013.08 1013.68 1014.28 1014.88 1015.45 1015.98 1016.45 1016.83 1017.14 1017.38 1017.56 1017.71 1017.83 1017.96 1018.11 1018.28 1018.47 1018.67 1018.87 1019.07 1019.25 1019.42 1019.58 1019.73 1019.90
997.66 998.01 998.52 999.20 1000.02 1000.97 1002.01 1003.10 1004.22 1005.33 1006.38 1007.37 1008.26 1009.08 1009.82 1010.49 1011.13 1011.75 1012.37 1012.99 1013.61 1014.22 1014.80 1015.33 1015.80 1016.20 1016.53 1016.79 1017.01 1017.19 1017.36 1017.54 1017.73 1017.94 1018.17 1018.40 1018.62 1018.83 1019.02 1019.19 1019.34 1019.49 1019.64
997.03 997.31 997.77 998.40 999.17 1000.08 1001.09 1002.17 1003.27 1004.37 1005.43 1006.43 1007.35 1008.20 1008.97 1009.68 1010.35 1010.99 1011.63 1012.25 1012.87 1013.46 1014.03 1014.54 1015.00 1015.41 1015.75 1016.04 1016.30 1016.54 1016.78 1017.03 1017.29 1017.56 1017.83 1018.10 1018.36 1018.59 1018.79 1018.97 1019.12 1019.26 1019.40
996.68 996.91 997.30 997.85 998.54 999.37 1000.31 1001.32 1002.37 1003.43 1004.47 1005.47 1006.40 1007.28 1008.09 1008.84 1009.54 1010.22 1010.86 1011.48 1012.08 1012.64 1013.17 1013.66 1014.10 1014.49 1014.85 1015.18 1015.49 1015.80 1016.11 1016.44 1016.77 1017.12 1017.45 1017.78 1018.07 1018.33 1018.55 1018.74 1018.89 1019.03 1019.16
996.65 996.82 997.13 997.58 998.16 998.87 999.68 1000.58 1001.53 1002.52 1003.51 1004.49 1005.43 1006.33 1007.17 1007.97 1008.72 1009.42 1010.07 1010.69 1011.26 1011.79 1012.28 1012.73 1013.14 1013.52 1013.88 1014.24 1014.59 1014.97 1015.35 1015.76 1016.17 1016.59 1016.99 1017.36 1017.70 1017.99 1018.23 1018.43 1018.60 1018.74 1018.87
996.94 997.05 997.27 997.60 998.04 998.59 999.25 999.99 1000.81 1001.68 1002.59 1003.52 1004.44 1005.35 1006.23 1007.06 1007.85 1008.58 1009.25 1009.86 1010.42 1010.91 1011.36 1011.77 1012.15 1012.51 1012.88 1013.25 1013.65 1014.07 1014.51 1014.98 1015.46 1015.93 1016.38 1016.79 1017.16 1017.49 1017.76 1017.98 1018.16 1018.32 1018.46
997.52 997.56 997.68 997.88 998.17 998.54 999.01 999.57 1000.22 1000.95 1001.74 1002.59 1003.47 1004.37 1005.25 1006.11 1006.92 1007.68 1008.37 1008.98 1009.52 1010.00 1010.42 1010.80 1011.16 1011.50 1011.86 1012.24 1012.66 1013.10 1013.58 1014.08 1014.59 1015.09 1015.56 1016.00 1016.40 1016.74 1017.04 1017.30 1017.51 1017.70 1017.87
Thickness
5795 5794 5793 5791 5788 5784 5781 5778 5775 5772 5769 5766 5762 5758 5756 5755 5755 5754 5753 5753 5751 5751 5749 5748 5747 5746 5745 5744 5743 5741 5739 5737 5738 5735 5733 5734 5735 5736 5736 5736 5736 5736 5735
5792 5793 5793 5791 5788 5785 5782 5779 5777 5774 5771 5768 5765 5762 5758 5756 5755 5754 5753 5752 5751 5751 5750 5749 5747 5746 5744 5743 5741 5740 5737 5736 5736 5733 5729 5726 5727 5730 5733 5732 5733 5733 5732
5794 5794 5793 5791 5790 5786 5784 5782 5778 5775 5772 5769 5765 5762 5759 5756 5754 5752 5752 5752 5751 5750 5749 5748 5747 5745 5744 5742 5741 5739 5737 5734 5734 5734 5730 5723 5719 5721 5725 5727 5728 5729 5729
5800 5797 5795 5793 5791 5790 5788 5784 5780 5777 5773 5770 5765 5761 5756 5752 5751 5751 5751 5751 5751 5750 5749 5747 5746 5745 5743 5742 5741 5740 5738 5735 5732 5732 5731 5729 5726 5720 5718 5721 5724 5725 5725
5804 5801 5800 5798 5796 5794 5790 5786 5782 5778 5774 5771 5767 5762 5757 5755 5753 5752 5751 5750 5750 5749 5748 5747 5746 5744 5743 5741 5740 5739 5738 5736 5733 5731 5729 5727 5725 5723 5718 5715 5717 5719 5721
5808 5805 5804 5800 5797 5795 5791 5787 5782 5778 5775 5771 5767 5763 5758 5755 5752 5751 5749 5749 5748 5748 5747 5746 5745 5744 5742 5741 5739 5738 5737 5735 5733 5731 5729 5726 5724 5721 5718 5714 5713 5713 5716
5810 5805 5802 5799 5796 5794 5791 5788 5782 5778 5775 5772 5768 5764 5760 5756 5753 5751 5749 5748 5747 5746 5746 5746 5744 5743 5742 5740 5739 5737 5736 5734 5732 5731 5729 5727 5726 5724 5720 5716 5712 5711 5712
5811 5808 5805 5801 5798 5795 5793 5789 5783 5779 5776 5773 5769 5765 5761 5758 5755 5753 5751 5749 5747 5746 5746 5745 5744 5743 5741 5740 5738 5737 5735 5734 5732 5730 5728 5727 5725 5723 5720 5717 5712 5708 5707
5812 5809 5806 5802 5800 5797 5795 5791 5786 5781 5777 5773 5770 5766 5763 5759 5757 5755 5753 5751 5749 5748 5747 5745 5743 5742 5740 5739 5737 5735 5733 5732 5730 5729 5727 5725 5724 5722 5720 5717 5715 5709 5703
5812 5809 5807 5804 5802 5800 5797 5793 5788 5783 5778 5775 5771 5768 5764 5760 5758 5755 5753 5751 5750 5748 5746 5744 5742 5741 5739 5737 5735 5733 5731 5729 5728 5726 5724 5723 5721 5720 5718 5715 5713 5711 5706
5811 5809 5807 5805 5803 5799 5796 5792 5787 5782 5778 5775 5771 5767 5764 5761 5758 5755 5753 5751 5749 5747 5745 5743 5741 5739 5737 5735 5732 5730 5728 5726 5724 5723 5721 5719 5719 5716 5714 5712 5710 5707 5705
5809 5807 5805 5802 5799 5796 5794 5790 5786 5782 5779 5775 5770 5766 5763 5760 5757 5755 5753 5751 5748 5746 5744 5741 5739 5737 5735 5732 5730 5727 5726 5723 5721 5719 5718 5716 5716 5713 5711 5709 5706 5703 5701
5804 5802 5801 5798 5796 5794 5792 5789 5785 5782 5779 5775 5770 5765 5761 5758 5756 5754 5751 5749 5747 5745 5742 5739 5736 5734 5732 5730 5727 5725 5722 5720 5718 5716 5714 5713 5711 5709 5707 5705 5702 5700 5697
5799 5797 5795 5794 5793 5792 5789 5786 5783 5781 5777 5773 5768 5764 5760 5757 5755 5753 5749 5747 5745 5743 5739 5737 5734 5732 5729 5727 5724 5722 5719 5717 5715 5713 5711 5709 5707 5705 5704 5702 5699 5695 5692
5792 5792 5791 5789 5789 5787 5785 5783 5781 5778 5774 5770 5766 5763 5759 5756 5753 5750 5747 5744 5742 5740 5737 5734 5732 5729 5727 5724 5721 5718 5715 5713 5711 5709 5708 5706 5704 5702 5700 5698 5695 5691 5687
5788 5788 5787 5786 5785 5784 5783 5781 5777 5774 5771 5766 5763 5760 5756 5752 5749 5746 5743 5741 5738 5736 5734 5731 5728 5726 5724 5721 5719 5715 5712 5709 5706 5704 5703 5701 5699 5697 5695 5692 5690 5688 5684
5785 5785 5784 5783 5782 5782 5780 5778 5775 5772 5767 5762 5758 5756 5753 5748 5746 5743 5740 5737 5735 5732 5729 5727 5725 5722 5720 5718 5715 5712 5708 5704 5701 5699 5697 5695 5693 5690 5688 5686 5684 5681 5678
5781 5781 5781 5780 5779 5779 5777 5774 5771 5767 5762 5758 5754 5752 5749 5745 5741 5739 5737 5734 5731 5728 5725 5723 5721 5719 5717 5714 5710 5707 5703 5699 5696 5694 5691 5689 5686 5684 5681 5679 5676 5673 5671
5778 5778 5778 5777 5776 5774 5772 5768 5764 5761 5757 5753 5751 5748 5745 5741 5738 5734 5732 5729 5726 5723 5721 5719 5717 5714 5712 5709 5706 5702 5697 5694 5691 5688 5686 5683 5680 5677 5675 5672 5669 5667 5664
5773 5773 5773 5771 5769 5767 5766 5762 5757 5754 5751 5750 5748 5744 5741 5737 5734 5731 5728 5725 5722 5719 5717 5714 5712 5710 5707 5704 5701 5697 5693 5689 5686 5682 5680 5677 5675 5672 5669 5666 5663 5660 5657
5767 5767 5766 5764 5762 5761 5758 5754 5751 5748 5747 5745 5742 5739 5736 5733 5730 5726 5723 5719 5716 5713 5710 5708 5706 5703 5701 5698 5695 5691 5688 5685 5681 5677 5674 5671 5668 5665 5662 5660 5656 5654 5650
5758 5759 5758 5756 5755 5754 5751 5748 5745 5744 5742 5739 5736 5732 5729 5726 5723 5719 5716 5713 5710 5706 5703 5700 5698 5696 5693 5691 5688 5685 5682 5679 5676 5672 5669 5665 5662 5659 5656 5653 5650 5647 5644
5750 5751 5750 5748 5747 5746 5745 5741 5739 5738 5735 5731 5728 5725 5722 5719 5716 5713 5709 5705 5703 5700 5697 5694 5691 5688 5686 5684 5681 5678 5675 5672 5670 5667 5664 5660 5656 5652 5649 5647 5644 5640 5637
5741 5742 5741 5740 5738 5738 5738 5736 5735 5732 5728 5724 5721 5718 5715 5711 5708 5705 5703 5700 5697 5694 5691 5688 5685 5682 5680 5677 5675 5671 5667 5665 5662 5660 5658 5654 5649 5646 5642 5639 5636 5633 5630
5732 5733 5733 5733 5732 5732 5730 5730 5728 5725 5721 5718 5715 5712 5708 5705 5701 5698 5696 5694 5693 5691 5687 5684 5681 5678 5675 5674 5670 5668 5663 5660 5656 5653 5650 5646 5642 5638 5634 5631 5628 5625 5622
5724 5724 5725 5725 5725 5724 5723 5722 5721 5718 5715 5711 5708 5705 5701 5698 5694 5691 5688 5686 5684 5682 5680 5678 5676 5674 5671 5668 5664 5661 5658 5654 5651 5648 5644 5639 5635 5632 5628 5625 5621 5618 5615